My Harle — ZCTV4 — position and weather

sailwx.info

Track history (hours):
 
Tides and Currents Weather Stations Pressure Air Temp Water Temp Dewpoint Dewpoint Depression Visibility Wind Speed Wind Dir Waves Ship Positions

My Harle

Last reported at 2014-Jul-24 10:33 UTC. Time now 2014-Jul-24 10:39 UTC.
Position N 43°16' E 006°38'.

Length 45 m; draft 2.7 m.

Type: Pleasure craft. MMSI: 319323000.

Date/timePositionNaut miles runAvg speedWind from/ knotsBaromVisibWave heightAir tempDewpointWater temp
2014-Jul-24 10:33N 43°16' E 006°38'0 0.0
2014-Jul-24 09:33N 43°16' E 006°38'0 0.0
2014-Jul-24 08:34N 43°16' E 006°38'0 0.0
2014-Jul-24 07:33N 43°16' E 006°38'0 0.0
2014-Jul-24 06:33N 43°16' E 006°38'0 0.0
2014-Jul-24 05:34N 43°16' E 006°38'0 0.0
2014-Jul-24 04:33N 43°16' E 006°38'0 0.0
2014-Jul-24 03:34N 43°16' E 006°38'0 0.0
2014-Jul-24 02:34N 43°16' E 006°38'0 0.0
2014-Jul-24 01:33N 43°16' E 006°38'0 0.0
2014-Jul-24 00:34N 43°16' E 006°38'0 0.0
2014-Jul-23 23:34N 43°16' E 006°38'0 0.0
2014-Jul-23 22:33N 43°16' E 006°38'0 0.0
2014-Jul-23 21:33N 43°16' E 006°38'0 0.0
2014-Jul-23 20:34N 43°16' E 006°38'0 0.0
2014-Jul-23 19:33N 43°16' E 006°38'0 0.0
2014-Jul-23 18:33N 43°16' E 006°38'0 0.0
2014-Jul-23 17:33N 43°16' E 006°38'3 3.3
2014-Jul-23 16:34N 43°16' E 006°43'7 0.9
2014-Jul-23 08:34N 43°09' E 006°39'7 7.5
2014-Jul-23 07:33N 43°17' E 006°37'0 0.1
2014-Jul-23 06:33N 43°17' E 006°38'0 0.0
2014-Jul-23 05:33N 43°17' E 006°38'0 0.0
2014-Jul-23 04:33N 43°17' E 006°38'0 0.0
2014-Jul-23 03:33N 43°17' E 006°38'0 0.0
2014-Jul-23 02:34N 43°17' E 006°38'0 0.0
2014-Jul-23 01:33N 43°17' E 006°38'0 0.0
2014-Jul-23 00:32N 43°17' E 006°38'0 0.0
2014-Jul-22 23:33N 43°17' E 006°38'0 0.0
2014-Jul-22 22:33N 43°17' E 006°38'0 0.0
2014-Jul-22 21:30N 43°17' E 006°37'0 0.0
2014-Jul-22 20:33N 43°17' E 006°37'0 0.0
2014-Jul-22 19:33N 43°17' E 006°37'0 0.0
2014-Jul-22 18:33N 43°17' E 006°38'0 0.0
2014-Jul-22 17:33N 43°17' E 006°38'3 3.5
2014-Jul-22 16:33N 43°14' E 006°40'0 0.0
2014-Jul-22 13:18N 43°14' E 006°40'0 0.0
2014-Jul-22 12:33N 43°14' E 006°40'0 0.0
2014-Jul-22 11:34N 43°14' E 006°40'0 0.0
2014-Jul-22 10:34N 43°14' E 006°40'0 0.0
2014-Jul-22 09:33N 43°14' E 006°40'0 0.4
2014-Jul-22 08:33N 43°14' E 006°41'1211.9
2014-Jul-22 07:33N 43°22' E 006°52'1210.7
2014-Jul-22 06:26N 43°33' E 007°01'0 0.4
2014-Jul-22 05:31N 43°33' E 007°01'0 0.0
2014-Jul-22 04:31N 43°33' E 007°01'0 0.0
2014-Jul-22 03:25N 43°33' E 007°01'0 0.0
2014-Jul-22 02:28N 43°33' E 007°01'0 0.0
2014-Jul-22 01:28N 43°33' E 007°01'0 0.0
2014-Jul-22 00:31N 43°33' E 007°01'0 0.0
2014-Jul-21 23:31N 43°33' E 007°01'0 0.0
2014-Jul-21 22:31N 43°33' E 007°01'0 0.0
2014-Jul-21 21:31N 43°33' E 007°01'0 0.0
2014-Jul-21 20:09N 43°33' E 007°01'0 0.0
2014-Jul-21 19:19N 43°33' E 007°01'0 0.0
2014-Jul-21 18:19N 43°33' E 007°01'0 0.0
2014-Jul-21 17:33N 43°33' E 007°01'0 0.0
2014-Jul-21 16:19N 43°33' E 007°01'0 0.5
2014-Jul-21 15:32N 43°33' E 007°01'0 0.4
2014-Jul-21 14:29N 43°33' E 007°00'0 0.1
2014-Jul-21 13:32N 43°33' E 007°00'0 0.0
2014-Jul-21 12:26N 43°33' E 007°00'1 0.7
2014-Jul-21 11:31N 43°33' E 007°01'0 0.0
2014-Jul-21 10:19N 43°33' E 007°01'0 0.0
2014-Jul-21 09:10N 43°33' E 007°01'0 0.0
2014-Jul-21 08:25N 43°33' E 007°01'0 0.0
2014-Jul-21 07:28N 43°33' E 007°01'0 0.0
2014-Jul-21 06:28N 43°33' E 007°01'0 0.0
2014-Jul-21 05:28N 43°33' E 007°01'0 0.0
2014-Jul-21 04:31N 43°33' E 007°01'0 0.0
2014-Jul-21 03:28N 43°33' E 007°01'0 0.0
2014-Jul-21 02:25N 43°33' E 007°01'0 0.0
2014-Jul-21 01:28N 43°33' E 007°01'0 0.0
2014-Jul-21 00:25N 43°33' E 007°01'0 0.0
2014-Jul-20 23:22N 43°33' E 007°01'0 0.0
2014-Jul-20 22:31N 43°33' E 007°01'0 0.0
2014-Jul-20 21:28N 43°33' E 007°01'0 0.0
2014-Jul-20 20:28N 43°33' E 007°01'0 0.0
2014-Jul-20 19:28N 43°33' E 007°01'0 0.0
2014-Jul-20 18:31N 43°33' E 007°01'0 0.0
2014-Jul-20 17:19N 43°33' E 007°01'1 0.7
2014-Jul-20 16:33N 43°32' E 007°01'2 1.4
2014-Jul-20 15:28N 43°31' E 007°02'0 0.0
2014-Jul-20 14:28N 43°31' E 007°02'0 0.0
2014-Jul-20 13:31N 43°31' E 007°02'0 0.0
2014-Jul-20 12:25N 43°31' E 007°02'0 0.2
2014-Jul-20 11:27N 43°31' E 007°02'2 1.9
2014-Jul-20 10:27N 43°33' E 007°01'0 0.0
2014-Jul-20 09:30N 43°33' E 007°01'0 0.0
2014-Jul-20 08:30N 43°33' E 007°01'0 0.0
2014-Jul-20 07:27N 43°33' E 007°01'0 0.0
2014-Jul-20 06:27N 43°33' E 007°01'0 0.0
2014-Jul-20 05:30N 43°33' E 007°01'0 0.0
2014-Jul-20 04:30N 43°33' E 007°01'0 0.0
2014-Jul-20 03:33N 43°33' E 007°01'0 0.0
2014-Jul-20 02:27N 43°33' E 007°01'0 0.0
2014-Jul-20 01:33N 43°33' E 007°01'0 0.0
2014-Jul-20 00:29N 43°33' E 007°01'0 0.0
2014-Jul-19 23:30N 43°33' E 007°01'0 0.0
2014-Jul-19 22:33N 43°33' E 007°01'0 0.0
2014-Jul-19 21:33N 43°33' E 007°01'0 0.0
2014-Jul-19 20:33N 43°33' E 007°01'0 0.0
2014-Jul-19 19:24N 43°33' E 007°01'0 0.0
2014-Jul-19 18:33N 43°33' E 007°01'0 0.0
2014-Jul-19 17:33N 43°33' E 007°01'0 0.0
2014-Jul-19 16:26N 43°33' E 007°01'0 0.0
2014-Jul-19 13:27N 43°33' E 007°01'0 0.0
2014-Jul-19 12:08N 43°33' E 007°01'0 0.0
2014-Jul-19 11:23N 43°33' E 007°01'0 0.0
2014-Jul-19 10:21N 43°33' E 007°01'0 0.0
2014-Jul-17 20:24N 43°33' E 007°01'0 0.0
2014-Jul-17 18:15N 43°33' E 007°01'0 0.3
2014-Jul-17 17:33N 43°33' E 007°01'1111.6
2014-Jul-17 16:33N 43°23' E 006°53'1312.9
2014-Jul-17 15:33N 43°14' E 006°41'2 0.3
2014-Jul-17 08:22N 43°12' E 006°40'1 1.4
2014-Jul-17 07:32N 43°13' E 006°40'4 4.4
2014-Jul-17 06:33N 43°17' E 006°39'1 0.9
2014-Jul-17 05:33N 43°16' E 006°38'0 0.0
2014-Jul-17 04:33N 43°16' E 006°38'0 0.0
2014-Jul-17 03:33N 43°16' E 006°38'0 0.0
2014-Jul-17 02:33N 43°16' E 006°38'0 0.0
2014-Jul-17 01:33N 43°16' E 006°38'0 0.0
2014-Jul-17 00:33N 43°16' E 006°38'0 0.0
2014-Jul-16 23:33N 43°16' E 006°38'0 0.0
2014-Jul-16 22:33N 43°16' E 006°38'0 0.0
2014-Jul-16 21:33N 43°16' E 006°38'0 0.0
2014-Jul-16 20:33N 43°16' E 006°38'0 0.0
2014-Jul-16 19:33N 43°16' E 006°38'0 0.0
2014-Jul-16 18:33N 43°16' E 006°38'0 0.0
2014-Jul-16 17:33N 43°16' E 006°38'0 0.3
2014-Jul-16 16:33N 43°16' E 006°38'1 1.2
2014-Jul-16 15:33N 43°17' E 006°37'0 0.0
2014-Jul-16 14:33N 43°17' E 006°37'0 0.0
2014-Jul-16 13:33N 43°17' E 006°37'0 0.0
2014-Jul-16 12:33N 43°17' E 006°37'0 0.0
2014-Jul-16 11:33N 43°17' E 006°37'0 0.0
2014-Jul-16 10:32N 43°17' E 006°37'0 0.5
2014-Jul-16 09:33N 43°17' E 006°37'1 0.7
2014-Jul-16 08:04N 43°16' E 006°38'0 0.0
2014-Jul-16 07:33N 43°16' E 006°38'0 0.0
2014-Jul-16 06:33N 43°16' E 006°38'0 0.0
2014-Jul-16 05:33N 43°16' E 006°38'0 0.0
2014-Jul-16 04:33N 43°16' E 006°38'0 0.0
2014-Jul-16 03:33N 43°16' E 006°38'0 0.0
2014-Jul-16 02:33N 43°16' E 006°38'0 0.0
2014-Jul-16 01:33N 43°16' E 006°38'0 0.0
2014-Jul-16 00:33N 43°16' E 006°38'0 0.0
2014-Jul-15 23:33N 43°16' E 006°38'0 0.0
2014-Jul-15 22:33N 43°16' E 006°38'0 0.0
2014-Jul-15 21:28N 43°16' E 006°38'0 0.0
2014-Jul-15 20:33N 43°16' E 006°38'0 0.0
2014-Jul-15 19:33N 43°16' E 006°38'0 0.0
2014-Jul-15 18:33N 43°16' E 006°38'0 0.0
2014-Jul-15 17:32N 43°16' E 006°38'4 3.8
2014-Jul-15 16:34N 43°16' E 006°43'6 6.3
2014-Jul-15 15:33N 43°10' E 006°40'2 0.2
2014-Jul-15 05:26N 43°09' E 006°39'1213.4
2014-Jul-15 04:33N 43°12' E 006°54'1111.3
2014-Jul-15 03:33N 43°17' E 007°08'1313.1
2014-Jul-15 02:33N 43°30' E 007°02'3 2.7
2014-Jul-15 01:33N 43°32' E 007°01'0 0.0
2014-Jul-15 00:30N 43°32' E 007°01'0 0.0
2014-Jul-14 23:33N 43°32' E 007°01'0 0.0
2014-Jul-14 22:33N 43°32' E 007°01'0 0.0
2014-Jul-14 21:30N 43°32' E 007°01'0 0.0
2014-Jul-14 20:27N 43°32' E 007°01'0 0.0
2014-Jul-14 19:30N 43°32' E 007°01'0 0.0
2014-Jul-14 18:33N 43°32' E 007°01'0 0.0
2014-Jul-14 17:33N 43°32' E 007°01'0 0.0
2014-Jul-14 16:27N 43°32' E 007°01'0 0.0
2014-Jul-14 15:30N 43°32' E 007°01'0 0.0
2014-Jul-14 14:33N 43°32' E 007°01'0 0.0
2014-Jul-14 13:30N 43°32' E 007°01'0 0.0
2014-Jul-14 12:33N 43°32' E 007°01'0 0.0
2014-Jul-14 11:33N 43°32' E 007°01'  
Track history (hours):
 
Tides and Currents Weather Stations Pressure Air Temp Water Temp Dewpoint Dewpoint Depression Visibility Wind Speed Wind Dir Waves Ship Positions

My Harle

Last reported at 2014-Jul-24 10:33 UTC. Time now 2014-Jul-24 10:39 UTC.
Position N 43°16' E 006°38'.

Length 45 m; draft 2.7 m.

Type: Pleasure craft. MMSI: 319323000.

Date/timePositionNaut miles runAvg speedWind from/ knotsBaromVisibWave heightAir tempDewpointWater temp
2014-Jul-24 10:33N 43°16' E 006°38'0 0.0
2014-Jul-24 09:33N 43°16' E 006°38'0 0.0
2014-Jul-24 08:34N 43°16' E 006°38'0 0.0
2014-Jul-24 07:33N 43°16' E 006°38'0 0.0
2014-Jul-24 06:33N 43°16' E 006°38'0 0.0
2014-Jul-24 05:34N 43°16' E 006°38'0 0.0
2014-Jul-24 04:33N 43°16' E 006°38'0 0.0
2014-Jul-24 03:34N 43°16' E 006°38'0 0.0
2014-Jul-24 02:34N 43°16' E 006°38'0 0.0
2014-Jul-24 01:33N 43°16' E 006°38'0 0.0
2014-Jul-24 00:34N 43°16' E 006°38'0 0.0
2014-Jul-23 23:34N 43°16' E 006°38'0 0.0
2014-Jul-23 22:33N 43°16' E 006°38'0 0.0
2014-Jul-23 21:33N 43°16' E 006°38'0 0.0
2014-Jul-23 20:34N 43°16' E 006°38'0 0.0
2014-Jul-23 19:33N 43°16' E 006°38'0 0.0
2014-Jul-23 18:33N 43°16' E 006°38'0 0.0
2014-Jul-23 17:33N 43°16' E 006°38'3 3.3
2014-Jul-23 16:34N 43°16' E 006°43'7 0.9
2014-Jul-23 08:34N 43°09' E 006°39'7 7.5
2014-Jul-23 07:33N 43°17' E 006°37'0 0.1
2014-Jul-23 06:33N 43°17' E 006°38'0 0.0
2014-Jul-23 05:33N 43°17' E 006°38'0 0.0
2014-Jul-23 04:33N 43°17' E 006°38'0 0.0
2014-Jul-23 03:33N 43°17' E 006°38'0 0.0
2014-Jul-23 02:34N 43°17' E 006°38'0 0.0
2014-Jul-23 01:33N 43°17' E 006°38'0 0.0
2014-Jul-23 00:32N 43°17' E 006°38'0 0.0
2014-Jul-22 23:33N 43°17' E 006°38'0 0.0
2014-Jul-22 22:33N 43°17' E 006°38'0 0.0
2014-Jul-22 21:30N 43°17' E 006°37'0 0.0
2014-Jul-22 20:33N 43°17' E 006°37'0 0.0
2014-Jul-22 19:33N 43°17' E 006°37'0 0.0
2014-Jul-22 18:33N 43°17' E 006°38'0 0.0
2014-Jul-22 17:33N 43°17' E 006°38'3 3.5
2014-Jul-22 16:33N 43°14' E 006°40'0 0.0
2014-Jul-22 13:18N 43°14' E 006°40'0 0.0
2014-Jul-22 12:33N 43°14' E 006°40'0 0.0
2014-Jul-22 11:34N 43°14' E 006°40'0 0.0
2014-Jul-22 10:34N 43°14' E 006°40'0 0.0
2014-Jul-22 09:33N 43°14' E 006°40'0 0.4
2014-Jul-22 08:33N 43°14' E 006°41'1211.9
2014-Jul-22 07:33N 43°22' E 006°52'1210.7
2014-Jul-22 06:26N 43°33' E 007°01'0 0.4
2014-Jul-22 05:31N 43°33' E 007°01'0 0.0
2014-Jul-22 04:31N 43°33' E 007°01'0 0.0
2014-Jul-22 03:25N 43°33' E 007°01'0 0.0
2014-Jul-22 02:28N 43°33' E 007°01'0 0.0
2014-Jul-22 01:28N 43°33' E 007°01'0 0.0
2014-Jul-22 00:31N 43°33' E 007°01'0 0.0
2014-Jul-21 23:31N 43°33' E 007°01'0 0.0
2014-Jul-21 22:31N 43°33' E 007°01'0 0.0
2014-Jul-21 21:31N 43°33' E 007°01'0 0.0
2014-Jul-21 20:09N 43°33' E 007°01'0 0.0
2014-Jul-21 19:19N 43°33' E 007°01'0 0.0
2014-Jul-21 18:19N 43°33' E 007°01'0 0.0
2014-Jul-21 17:33N 43°33' E 007°01'0 0.0
2014-Jul-21 16:19N 43°33' E 007°01'0 0.5
2014-Jul-21 15:32N 43°33' E 007°01'0 0.4
2014-Jul-21 14:29N 43°33' E 007°00'0 0.1
2014-Jul-21 13:32N 43°33' E 007°00'0 0.0
2014-Jul-21 12:26N 43°33' E 007°00'1 0.7
2014-Jul-21 11:31N 43°33' E 007°01'0 0.0
2014-Jul-21 10:19N 43°33' E 007°01'0 0.0
2014-Jul-21 09:10N 43°33' E 007°01'0 0.0
2014-Jul-21 08:25N 43°33' E 007°01'0 0.0
2014-Jul-21 07:28N 43°33' E 007°01'0 0.0
2014-Jul-21 06:28N 43°33' E 007°01'0 0.0
2014-Jul-21 05:28N 43°33' E 007°01'0 0.0
2014-Jul-21 04:31N 43°33' E 007°01'0 0.0
2014-Jul-21 03:28N 43°33' E 007°01'0 0.0
2014-Jul-21 02:25N 43°33' E 007°01'0 0.0
2014-Jul-21 01:28N 43°33' E 007°01'0 0.0
2014-Jul-21 00:25N 43°33' E 007°01'0 0.0
2014-Jul-20 23:22N 43°33' E 007°01'0 0.0
2014-Jul-20 22:31N 43°33' E 007°01'0 0.0
2014-Jul-20 21:28N 43°33' E 007°01'0 0.0
2014-Jul-20 20:28N 43°33' E 007°01'0 0.0
2014-Jul-20 19:28N 43°33' E 007°01'0 0.0
2014-Jul-20 18:31N 43°33' E 007°01'0 0.0
2014-Jul-20 17:19N 43°33' E 007°01'1 0.7
2014-Jul-20 16:33N 43°32' E 007°01'2 1.4
2014-Jul-20 15:28N 43°31' E 007°02'0 0.0
2014-Jul-20 14:28N 43°31' E 007°02'0 0.0
2014-Jul-20 13:31N 43°31' E 007°02'0 0.0
2014-Jul-20 12:25N 43°31' E 007°02'0 0.2
2014-Jul-20 11:27N 43°31' E 007°02'2 1.9
2014-Jul-20 10:27N 43°33' E 007°01'0 0.0
2014-Jul-20 09:30N 43°33' E 007°01'0 0.0
2014-Jul-20 08:30N 43°33' E 007°01'0 0.0
2014-Jul-20 07:27N 43°33' E 007°01'0 0.0
2014-Jul-20 06:27N 43°33' E 007°01'0 0.0
2014-Jul-20 05:30N 43°33' E 007°01'0 0.0
2014-Jul-20 04:30N 43°33' E 007°01'0 0.0
2014-Jul-20 03:33N 43°33' E 007°01'0 0.0
2014-Jul-20 02:27N 43°33' E 007°01'0 0.0
2014-Jul-20 01:33N 43°33' E 007°01'0 0.0
2014-Jul-20 00:29N 43°33' E 007°01'0 0.0
2014-Jul-19 23:30N 43°33' E 007°01'0 0.0
2014-Jul-19 22:33N 43°33' E 007°01'0 0.0
2014-Jul-19 21:33N 43°33' E 007°01'0 0.0
2014-Jul-19 20:33N 43°33' E 007°01'0 0.0
2014-Jul-19 19:24N 43°33' E 007°01'0 0.0
2014-Jul-19 18:33N 43°33' E 007°01'0 0.0
2014-Jul-19 17:33N 43°33' E 007°01'0 0.0
2014-Jul-19 16:26N 43°33' E 007°01'0 0.0
2014-Jul-19 13:27N 43°33' E 007°01'0 0.0
2014-Jul-19 12:08N 43°33' E 007°01'0 0.0
2014-Jul-19 11:23N 43°33' E 007°01'0 0.0
2014-Jul-19 10:21N 43°33' E 007°01'0 0.0
2014-Jul-17 20:24N 43°33' E 007°01'0 0.0
2014-Jul-17 18:15N 43°33' E 007°01'0 0.3
2014-Jul-17 17:33N 43°33' E 007°01'1111.6
2014-Jul-17 16:33N 43°23' E 006°53'1312.9
2014-Jul-17 15:33N 43°14' E 006°41'2 0.3
2014-Jul-17 08:22N 43°12' E 006°40'1 1.4
2014-Jul-17 07:32N 43°13' E 006°40'4 4.4
2014-Jul-17 06:33N 43°17' E 006°39'1 0.9
2014-Jul-17 05:33N 43°16' E 006°38'0 0.0
2014-Jul-17 04:33N 43°16' E 006°38'0 0.0
2014-Jul-17 03:33N 43°16' E 006°38'0 0.0
2014-Jul-17 02:33N 43°16' E 006°38'0 0.0
2014-Jul-17 01:33N 43°16' E 006°38'0 0.0
2014-Jul-17 00:33N 43°16' E 006°38'0 0.0
2014-Jul-16 23:33N 43°16' E 006°38'0 0.0
2014-Jul-16 22:33N 43°16' E 006°38'0 0.0
2014-Jul-16 21:33N 43°16' E 006°38'0 0.0
2014-Jul-16 20:33N 43°16' E 006°38'0 0.0
2014-Jul-16 19:33N 43°16' E 006°38'0 0.0
2014-Jul-16 18:33N 43°16' E 006°38'0 0.0
2014-Jul-16 17:33N 43°16' E 006°38'0 0.3
2014-Jul-16 16:33N 43°16' E 006°38'1 1.2
2014-Jul-16 15:33N 43°17' E 006°37'0 0.0
2014-Jul-16 14:33N 43°17' E 006°37'0 0.0
2014-Jul-16 13:33N 43°17' E 006°37'0 0.0
2014-Jul-16 12:33N 43°17' E 006°37'0 0.0
2014-Jul-16 11:33N 43°17' E 006°37'0 0.0
2014-Jul-16 10:32N 43°17' E 006°37'0 0.5
2014-Jul-16 09:33N 43°17' E 006°37'1 0.7
2014-Jul-16 08:04N 43°16' E 006°38'0 0.0
2014-Jul-16 07:33N 43°16' E 006°38'0 0.0
2014-Jul-16 06:33N 43°16' E 006°38'0 0.0
2014-Jul-16 05:33N 43°16' E 006°38'0 0.0
2014-Jul-16 04:33N 43°16' E 006°38'0 0.0
2014-Jul-16 03:33N 43°16' E 006°38'0 0.0
2014-Jul-16 02:33N 43°16' E 006°38'0 0.0
2014-Jul-16 01:33N 43°16' E 006°38'0 0.0
2014-Jul-16 00:33N 43°16' E 006°38'0 0.0
2014-Jul-15 23:33N 43°16' E 006°38'0 0.0
2014-Jul-15 22:33N 43°16' E 006°38'0 0.0
2014-Jul-15 21:28N 43°16' E 006°38'0 0.0
2014-Jul-15 20:33N 43°16' E 006°38'0 0.0
2014-Jul-15 19:33N 43°16' E 006°38'0 0.0
2014-Jul-15 18:33N 43°16' E 006°38'0 0.0
2014-Jul-15 17:32N 43°16' E 006°38'4 3.8
2014-Jul-15 16:34N 43°16' E 006°43'6 6.3
2014-Jul-15 15:33N 43°10' E 006°40'2 0.2
2014-Jul-15 05:26N 43°09' E 006°39'1213.4
2014-Jul-15 04:33N 43°12' E 006°54'1111.3
2014-Jul-15 03:33N 43°17' E 007°08'1313.1
2014-Jul-15 02:33N 43°30' E 007°02'3 2.7
2014-Jul-15 01:33N 43°32' E 007°01'0 0.0
2014-Jul-15 00:30N 43°32' E 007°01'0 0.0
2014-Jul-14 23:33N 43°32' E 007°01'0 0.0
2014-Jul-14 22:33N 43°32' E 007°01'0 0.0
2014-Jul-14 21:30N 43°32' E 007°01'0 0.0
2014-Jul-14 20:27N 43°32' E 007°01'0 0.0
2014-Jul-14 19:30N 43°32' E 007°01'0 0.0
2014-Jul-14 18:33N 43°32' E 007°01'0 0.0
2014-Jul-14 17:33N 43°32' E 007°01'0 0.0
2014-Jul-14 16:27N 43°32' E 007°01'0 0.0
2014-Jul-14 15:30N 43°32' E 007°01'0 0.0
2014-Jul-14 14:33N 43°32' E 007°01'0 0.0
2014-Jul-14 13:30N 43°32' E 007°01'0 0.0
2014-Jul-14 12:33N 43°32' E 007°01'0 0.0
2014-Jul-14 11:33N 43°32' E 007°01'  

Dump ship's entire track history